1311465628146,118.764
1311465688146,118.820
1311465748146,118.817
1311465808146,118.933
1311465868146,118.992
1311465928146,118.731
1311465988146,118.640
1311466048146,118.690
1311466108146,118.901
1311466168146,118.957
1311466228146,118.669
1311466288146,118.682
1311466348146,118.649
1311466408146,118.940
1311466468146,118.573
1311466528146,119.052
1311466588146,118.768
1311466648146,118.729
1311466708146,118.898
1311466768146,118.706
1311466828146,118.859
1311466888146,118.713
1311466948146,118.911
1311467008146,118.647
1311467068146,118.693
1311467128146,118.742
1311467188146,118.809
1311467248146,118.853
1311467308146,118.925
1311467368146,118.621
1311467428146,118.761
1311467488146,118.707
1311467548146,118.858
1311467608146,118.839
1311467668146,118.678
1311467728146,118.814
1311467788146,119.053
1311467848146,118.803
1311467908146,118.861
1311467968146,118.775
1311468028146,118.907
1311468088146,119.090
1311468148146,119.081
1311468208146,118.675
1311468268146,118.994
1311468328146,118.748
1311468388146,118.746
1311468448146,119.035
1311468508146,119.031
1311468568146,118.640
1311468628146,118.934
1311468688146,118.788
1311468748146,118.833
1311468808146,118.745
1311468868146,118.991
1311468928146,119.019
1311468988146,118.935
1311469048146,118.900
1311469108146,118.845
1311469168146,118.930
1311469228156,118.779
1311469288156,118.895
1311469348156,118.972
1311469408156,118.872
1311469468156,119.046
1311469528156,118.788
1311469588156,118.937
1311469648156,118.925
1311469708156,118.836
1311469768156,118.916
1311469828156,118.613
1311469888156,118.839
1311469948156,118.645
1311470008156,118.971
1311470068156,118.692
1311470128156,118.676
1311470188156,118.961
1311470248156,118.796
1311470308156,118.833
1311470368156,118.768
1311470428156,118.690
1311470488156,118.693
1311470548156,118.866
1311470608156,118.911
1311470668156,118.829
1311470728156,118.952
1311470788156,118.698
1311470848156,118.872
1311470908156,118.978
1311470968156,118.623
1311471028156,118.613
1311471088156,118.749
1311471148156,118.696
1311471208156,118.941
1311471268156,118.828
1311471328156,118.877
1311471388156,118.820
1311471448156,118.888
1311471508156,118.539
1311471568156,118.569
1311471628156,118.579
1311471688156,119.054
1311471748156,118.726
1311471808156,118.612
1311471868156,118.701
1311471928156,118.981
1311471988156,118.693
1311472048156,118.683
1311472108156,118.815
1311472168156,118.722
1311472228156,118.656
1311472288156,118.611
1311472348156,118.603
1311472408156,118.693
1311472468156,118.854
1311472528156,118.766
1311472588156,118.712
1311472648156,118.844
1311472708156,118.790
1311472768156,118.933
1311472828166,118.887
1311472888166,119.012
1311472948166,118.803
1311473008166,119.058
1311473068166,119.125
1311473128166,119.069
1311473188166,118.902
1311473248166,118.799
1311473308166,118.950
1311473368166,118.948
1311473428166,119.101
1311473488166,118.985
1311473548166,118.890
1311473608166,118.887
1311473668166,118.623
1311473728166,119.145
1311473788166,118.922
1311473848166,118.799
1311473908166,118.895
1311473968166,119.000
1311474028166,118.850
1311474088166,118.973
1311474148166,118.834
1311474208166,118.826
1311474268166,118.995
1311474328166,119.027
1311474388166,118.923
1311474448166,118.965
1311474508166,118.713
1311474568166,118.988
1311474628166,118.874
1311474688166,118.944
1311474748166,119.078
1311474808166,119.008
1311474868166,119.070
1311474928166,119.132
1311474988166,118.778
1311475048166,119.284
1311475108166,119.076
1311475168166,119.145
1311475228166,119.107
1311475288166,118.952
1311475348166,119.184
1311475408166,119.191
1311475468166,119.247
1311475528166,119.000
1311475588166,119.071
1311475648166,119.436
1311475708166,118.965
1311475768166,119.131
1311475828166,119.402
1311475888166,119.148
1311475948166,119.198
1311476008166,119.108
1311476068166,119.447
1311476128166,119.366
1311476188166,119.139
1311476248166,119.323
1311476308166,119.371
1311476368166,119.580
1311476428175,119.267
1311476488175,119.351
1311476548175,119.534
1311476608175,119.553
1311476668175,119.186
1311476728175,119.309
1311476788175,119.586
1311476848175,119.378
1311476908175,119.429
1311476968175,119.222
1311477028175,119.314
1311477088175,119.386
1311477148175,119.387
1311477208175,119.404
1311477268175,119.227
1311477328175,119.529
1311477388175,119.208
1311477448175,119.395
1311477508175,119.530
1311477568175,119.371
1311477628175,119.495
1311477688175,119.640
1311477748175,119.405
1311477808175,119.266
1311477868175,119.461
1311477928175,119.263
1311477988175,119.598
1311478048175,119.483
1311478108175,119.418
1311478168175,119.560
1311478228175,119.485
1311478288175,119.748
1311478348175,119.584
1311478408175,119.557
1311478468175,119.648
1311478528175,119.981
1311478588175,119.820
1311478648175,119.719
1311478708175,119.816
1311478768175,119.677
1311478828175,119.696
1311478888175,119.774
1311478948175,119.906
1311479008175,119.871
1311479068175,119.768
1311479128175,120.243
1311479188175,119.870
1311479248175,119.936
1311479308175,119.941
1311479368175,119.479
1311479428175,119.754
1311479488175,119.973
1311479548175,119.964
1311479608175,119.918
1311479668175,119.922
1311479728175,119.879
1311479788175,120.287
1311479848175,119.693
1311479908175,119.915
1311479968175,119.959
1311480028184,120.108
1311480088184,119.863
1311480148184,119.875
1311480208184,120.206
1311480268184,119.931
1311480328184,119.788
1311480388184,120.100
1311480448184,119.715
1311480508184,120.099
1311480568184,119.890
1311480628184,119.768
1311480688184,119.957
1311480748184,120.059
1311480808184,119.852
1311480868184,120.027
1311480928184,119.970
1311480988184,119.750
1311481048184,119.639
1311481108184,119.916
1311481168184,119.908
1311481228184,119.949
1311481288184,119.888
1311481348184,120.001
1311481408184,119.519
1311481468184,119.922
1311481528184,119.939
1311481588184,119.893
1311481648184,119.853
1311481708184,119.658
1311481768184,119.746
1311481828184,119.658
1311481888184,119.699
1311481948184,119.778
1311482008184,119.690
1311482068184,119.568
1311482128184,119.386
1311482188184,119.726
1311482248184,119.641
1311482308184,119.803
1311482368184,119.568
1311482428184,119.802
1311482488184,119.592
1311482548184,119.768
1311482608184,119.690
1311482668184,119.587
1311482728184,119.757
1311482788184,119.547
1311482848184,119.507
1311482908184,119.753
1311482968184,119.474
1311483028184,119.566
1311483088184,119.708
1311483148184,119.522
1311483208184,119.732
1311483268184,119.729
1311483328184,119.610
1311483388184,119.766
1311483448184,119.790
1311483508184,119.448
1311483568184,119.795
1311483628194,119.672
1311483688194,119.798
1311483748194,119.637
1311483808194,119.719
1311483868194,119.628
1311483928194,119.800
1311483988194,119.684
1311484048194,119.646
1311484108194,120.067
1311484168194,120.029
1311484228194,119.480
1311484288194,119.759
1311484348194,119.861
1311484408194,119.675
1311484468194,119.925
1311484528194,119.497
1311484588194,120.015
1311484648194,119.905
1311484708194,119.592
1311484768194,119.688
1311484828194,119.820
1311484888194,119.766
1311484948194,119.833
1311485008194,119.737
1311485068194,119.645
1311485128194,120.027
1311485188194,119.741
1311485248194,119.671
1311485308194,119.891
1311485368194,119.850
1311485428194,119.729
1311485488194,119.887
1311485548194,119.734
1311485608194,119.586
1311485668194,119.892
1311485728194,119.789
1311485788194,119.783
1311485848194,119.733
1311485908194,119.836
1311485968194,119.855
1311486028194,119.927
1311486088194,119.734
1311486148194,119.854
1311486208194,119.785
1311486268194,120.145
1311486328194,119.920
1311486388194,119.800
1311486448194,119.975
1311486508194,119.901
1311486568194,119.802
1311486628194,120.019
1311486688194,119.768
1311486748194,119.644
1311486808194,119.625
1311486868194,119.620
1311486928194,119.737
1311486988194,119.851
1311487048194,119.765
1311487108194,119.827
1311487168194,119.583
1311487228203,119.936
1311487288203,119.894
1311487348203,119.731
1311487408203,119.910
1311487468203,120.034
1311487528203,119.648
1311487588203,119.761
1311487648203,119.899
1311487708203,119.846
1311487768203,119.560
1311487828203,119.699
1311487888203,119.694
1311487948203,119.671
1311488008203,119.679
1311488068203,119.339
1311488128203,119.822
1311488188203,120.002
1311488248203,119.951
1311488308203,119.740
1311488368203,119.911
1311488428203,119.878
1311488488203,120.036
1311488548203,119.857
1311488608203,119.922
1311488668203,119.800
1311488728203,119.794
1311488788203,119.846
1311488848203,119.772
1311488908203,119.780
1311488968203,120.039
1311489028203,119.669
1311489088203,119.809
1311489148203,120.000
1311489208203,120.027
1311489268203,120.070
1311489328203,120.012
1311489388203,119.702
1311489448203,119.979
1311489508203,119.783
1311489568203,119.715
1311489628203,119.882
1311489688203,120.102
1311489748203,120.060
1311489808203,119.886
1311489868203,119.870
1311489928203,119.927
1311489988203,120.148
1311490048203,119.797
1311490108203,119.932
1311490168203,120.143
1311490228203,120.350
1311490288203,119.945
1311490348203,120.201
1311490408203,120.152
1311490468203,119.989
1311490528203,120.212
1311490588203,120.115
1311490648203,119.975
1311490708203,120.049
1311490768203,120.041
1311490828212,120.180
1311490888212,120.030
1311490948212,120.288
1311491008212,120.269
1311491068212,120.214
1311491128212,120.387
1311491188212,120.226
1311491248212,120.734
1311491308212,120.222
1311491368212,120.035
1311491428212,120.265
1311491488212,120.286
1311491548212,120.079
1311491608212,120.100
1311491668212,120.176
1311491728212,120.201
1311491788212,120.248
1311491848212,120.136
1311491908212,120.273
1311491968212,120.686
1311492028212,120.433
1311492088212,120.505
1311492148212,120.324
1311492208212,120.426
1311492268212,120.356
1311492328212,120.421
1311492388212,120.328
1311492448212,120.386
1311492508212,120.269
1311492568212,120.406
1311492628212,120.612
1311492688212,120.345
1311492748212,120.343
1311492808212,120.444
1311492868212,120.367
1311492928212,120.429
1311492988212,120.608
1311493048212,120.662
1311493108212,120.814
1311493168212,120.786
1311493228212,120.821
1311493288212,120.855
1311493348212,120.626
1311493408212,120.724
1311493468212,120.704
1311493528212,120.637
1311493588212,120.532
1311493648212,120.824
1311493708212,120.542
1311493768212,120.517
1311493828212,120.681
1311493888212,120.747
1311493948212,120.662
1311494008212,120.750
1311494068212,120.657
1311494128212,120.729
1311494188212,120.936
1311494248212,120.845
1311494308212,120.686
1311494368212,120.729
1311494428221,120.658
1311494488221,120.844
1311494548221,120.690
1311494608221,120.803
1311494668221,120.463
1311494728221,120.855
1311494788221,120.504
1311494848221,120.534
1311494908221,120.825
1311494968221,120.812
1311495028221,120.599
1311495088221,120.529
1311495148221,120.430
1311495208221,120.482
1311495268221,120.432
1311495328221,120.758
1311495388221,120.531
1311495448221,120.303
1311495508221,120.748
1311495568221,120.732
1311495628221,120.380
1311495688221,120.608
1311495748221,120.520
1311495808221,120.451
1311495868221,120.326
1311495928221,120.624
1311495988221,120.610
1311496048221,120.493
1311496108221,120.539
1311496168221,120.507
1311496228221,120.463
1311496288221,120.474
1311496348221,120.628
1311496408221,120.464
1311496468221,120.576
1311496528221,120.609
1311496588221,120.404
1311496648221,120.477
1311496708221,120.480
1311496768221,120.713
1311496828221,120.747
1311496888221,120.744
1311496948221,120.616
1311497008221,120.689
1311497068221,120.630
1311497128221,120.476
1311497188221,120.411
1311497248221,120.167
1311497308221,120.649
1311497368221,120.678
1311497428221,120.501
1311497488221,120.504
1311497548221,120.222
1311497608221,120.677
1311497668221,120.437
1311497728221,120.339
1311497788221,120.654
1311497848221,120.530
1311497908221,120.524
1311497968221,120.587
1311498028230,120.607
1311498088230,120.472
1311498148230,120.486
1311498208230,120.517
1311498268230,120.515
1311498328230,120.447
1311498388230,120.785
1311498448230,120.553
1311498508230,120.610
1311498568230,120.298
1311498628230,120.474
1311498688230,120.386
1311498748230,120.682
1311498808230,120.501
1311498868230,120.309
1311498928230,120.208
1311498988230,120.396
1311499048230,120.494
1311499108230,120.678
1311499168230,120.722
1311499228230,120.534
1311499288230,120.396
1311499348230,120.342
1311499408230,120.448
1311499468230,120.447
1311499528230,120.548
1311499588230,120.800
1311499648230,120.266
1311499708230,120.589
1311499768230,120.316
1311499828230,120.385
1311499888230,120.620
1311499948230,120.291
1311500008230,120.302
1311500068230,120.519
1311500128230,120.192
1311500188230,120.487
1311500248230,120.582
1311500308230,120.275
1311500368230,120.455
1311500428230,120.388
1311500488230,120.367
1311500548230,120.213
1311500608230,120.236
1311500668230,120.430
1311500728230,120.598
1311500788230,120.297
1311500848230,120.393
1311500908230,120.305
1311500968230,120.363
1311501028230,120.490
1311501088230,120.449
1311501148230,120.298
1311501208230,120.272
1311501268230,120.405
1311501328230,120.196
1311501388230,120.303
1311501448230,120.754
1311501508230,120.377
1311501568230,120.522
1311501628239,120.371
1311501688239,120.477
1311501748239,120.386
1311501808239,120.491
1311501868239,120.486
1311501928239,120.537
1311501988239,120.429
1311502048239,120.434
1311502108239,120.533
1311502168239,120.683
1311502228239,120.289
1311502288239,120.432
1311502348239,120.562
1311502408239,120.547
1311502468239,120.379
1311502528239,120.472
1311502588239,120.107
1311502648239,120.353
1311502708239,120.649
1311502768239,120.517
1311502828239,120.238
1311502888239,120.300
1311502948239,120.250
1311503008239,120.260
1311503068239,120.471
1311503128239,120.252
1311503188239,120.584
1311503248239,120.333
1311503308239,120.469
1311503368239,120.283
1311503428239,120.550
1311503488239,120.642
1311503548239,120.588
1311503608239,120.710
1311503668239,120.640
1311503728239,120.744
1311503788239,120.567
1311503848239,120.607
1311503908239,120.708
1311503968239,120.734
1311504028239,120.764
1311504088239,120.775
1311504148239,120.605
1311504208239,120.717
1311504268239,120.866
1311504328239,120.812
1311504388239,120.733
1311504448239,120.536
1311504508239,120.970
1311504568239,120.616
1311504628239,120.874
1311504688239,120.816
1311504748239,120.590
1311504808239,120.539
1311504868239,121.107
1311504928239,121.092
1311504988239,120.710
1311505048239,120.707
1311505108239,121.088
1311505168239,120.968
1311505228248,120.916
1311505288248,120.891
1311505348248,120.891
1311505408248,120.612
1311505468248,120.840
1311505528248,121.156
1311505588248,120.798
1311505648248,120.878
1311505708248,121.040
1311505768248,121.133
1311505828248,120.964
1311505888248,120.998
1311505948248,121.018
1311506008248,121.008
1311506068248,121.230
1311506128248,120.927
1311506188248,121.144
1311506248248,121.040
1311506308248,121.196
1311506368248,121.084
1311506428248,120.983
1311506488248,120.916
1311506548248,121.401
1311506608248,121.189
1311506668248,121.025
1311506728248,121.166
1311506788248,121.313
1311506848248,121.351
1311506908248,121.320
1311506968248,121.413
1311507028248,121.224
1311507088248,121.215
1311507148248,121.241
1311507208248,121.312
1311507268248,121.487
1311507328248,121.514
1311507388248,121.686
1311507448248,121.263
1311507508248,121.165
1311507568248,121.091
1311507628248,121.562
1311507688248,121.314
1311507748248,121.447
1311507808248,121.331
1311507868248,121.327
1311507928248,121.376
1311507988248,121.300
1311508048248,121.540
1311508108248,121.438
1311508168248,121.216
1311508228248,121.093
1311508288248,121.005
1311508348248,121.025
1311508408248,121.032
1311508468248,120.950
1311508528248,120.841
1311508588248,121.024
1311508648248,120.836
1311508708248,121.167
1311508768248,121.127
1311508828257,120.930
1311508888257,121.017
1311508948257,120.954
1311509008257,120.829
1311509068257,122.231
1311509128257,121.006
1311509188257,121.106
1311509248257,120.971
1311509308257,121.202
1311509368257,121.164
1311509428257,121.139
1311509488257,120.973
1311509548257,120.919
1311509608257,120.826
1311509668257,120.707
1311509728257,120.855
1311509788257,121.006
1311509848257,120.940
1311509908257,121.040
1311509968257,120.765
1311510028257,120.706
1311510088257,121.077
1311510148257,120.980
1311510208257,120.971
1311510268257,120.663
1311510328257,120.750
1311510388257,121.137
1311510448257,120.804
1311510508257,120.936
1311510568257,120.998
1311510628257,121.084
1311510688257,120.863
1311510748257,120.865
1311510808257,120.981
1311510868257,121.130
1311510928257,121.108
1311510988257,121.101
1311511048257,121.203
1311511108257,121.062
1311511168257,121.001
1311511228257,121.218
1311511288257,120.866
1311511348257,121.014
1311511408257,121.250
1311511468257,121.029
1311511528257,121.078
1311511588257,120.705
1311511648257,120.980
1311511708257,121.174
1311511768257,121.155
1311511828257,120.884
1311511888257,120.923
1311511948257,121.179
1311512008257,120.978
1311512068257,121.332
1311512128257,120.945
1311512188257,121.011
1311512248257,121.365
1311512308257,121.140
1311512368257,121.009
1311512428266,121.005
1311512488266,121.077
1311512548266,121.099
1311512608266,121.145
1311512668266,120.950
1311512728266,121.139
1311512788266,120.918
1311512848266,121.061
1311512908266,120.984
1311512968266,121.110
1311513028266,121.321
1311513088266,120.982
1311513148266,120.943
1311513208266,121.040
1311513268266,121.048
1311513328266,121.149
1311513388266,121.149
1311513448266,121.318
1311513508266,121.032
1311513568266,120.952
1311513628266,120.982
1311513688266,120.801
1311513748266,120.889
1311513808266,121.088
1311514948266,120.936
1311515008266,120.796
1311515068266,120.983
1311515128266,121.270
1311515188266,120.844
1311515248266,120.981
1311515308266,120.938
1311515368266,121.062
1311515428266,120.845
1311515488266,121.118
1311515548266,120.827
1311515608266,120.995
1311515668266,121.448
1311515728266,120.945
1311515788266,121.243
1311515848266,121.267
1311515908266,120.761
1311515968266,120.980
1311516028275,121.207
1311516088275,120.921
1311516148275,120.948
1311516208275,120.844
1311516268275,121.357
1311516328275,120.879
1311516388275,120.788
1311516448275,120.972
1311516508275,121.004
1311516568275,121.170
1311516628275,120.818
1311516688275,120.772
1311516748275,120.913
1311516808275,120.991
1311516868275,120.881
1311516928275,120.847
1311516988275,120.711
1311517048275,120.696
1311517108275,120.911
1311517168275,120.841
1311517228275,120.593
1311517288275,120.637
1311517348275,120.614
1311517408275,120.613
1311517468275,120.625
1311517528275,120.596
1311517588275,120.734
1311517648275,120.871
1311517708275,120.830
1311517768275,120.669
1311517828275,120.855
1311517888275,120.565
1311517948275,120.712
1311518008275,120.692
1311518068275,120.779
1311518128275,120.846
1311518188275,120.664
1311518248275,120.689
1311518308275,120.696
1311518368275,120.410
1311518428275,120.407
1311518488275,120.416
1311518548275,120.518
1311518608275,120.403
1311518668275,120.522
1311518728275,120.507
1311518788275,120.348
1311518848275,120.614
1311518908275,120.319
1311518968275,120.631
1311519028275,120.550
1311519088275,120.552
1311519148275,120.485
1311519208275,120.272
1311519268275,120.535
1311519328275,120.408
1311519388275,120.358
1311519448275,120.018
1311519508275,120.311
1311519568275,120.467
1311519628285,120.014
1311519688285,120.349
1311519748285,120.245
1311519808285,120.303
1311519868285,120.476
1311519928285,120.403
1311519988285,120.548
1311520048285,120.155
1311520108285,120.549
1311520168285,120.345
1311520228285,120.547
1311520288285,120.269
1311520348285,120.372
1311520408285,120.552
1311520468285,120.360
1311520528285,120.413
1311520588285,120.356
1311520648285,120.206
1311520708285,120.536
1311520768285,120.137
1311520828285,120.527
1311520888285,120.560
1311520948285,120.420
1311521008285,120.225
1311521068285,120.402
1311521128285,120.359
1311521188285,120.329
1311521248285,120.419
1311521308285,120.311
1311521368285,120.297
1311521428285,120.457
1311521488285,120.277
1311521548285,120.527
1311521608285,120.152
1311521668285,120.434
1311521728285,120.127
1311521788285,120.081
1311521848285,120.290
1311521908285,120.287
1311521968285,120.144
1311522028285,120.302
1311522088285,120.358
1311522148285,120.366
1311522208285,120.201
1311522268285,120.439
1311522328285,120.364
1311522388285,120.416
1311522448285,120.329
1311522508285,120.530
1311522568285,120.285
1311522628285,120.416
1311522688285,120.434
1311522748285,120.408
1311522808285,119.839
1311522868285,120.364
1311522928285,120.255
1311522988285,120.253
1311523048285,120.219
1311523108285,120.231
1311523168285,120.423
1311523228295,120.075
1311523288295,120.213
1311523348295,120.214
1311523408295,120.117
1311523468295,120.021
1311523528295,120.411
1311523588295,120.277
1311523648295,120.077
1311523708295,120.209
1311523768295,120.333
1311523828295,120.371
1311523888295,120.407
1311523948295,120.197
1311524008295,120.093
1311524068295,120.222
1311524128295,120.239
1311524188295,120.246
1311524248295,119.943
1311524308295,120.174
1311524368295,120.658
1311524428295,120.464
1311524488295,120.245
1311524548295,120.361
1311524608295,120.580
1311524668295,120.393
1311524728295,120.416
1311524788295,120.568
1311524848295,120.280
1311524908295,120.414
1311524968295,120.377
1311525028295,120.437
1311525088295,120.307
1311525148295,120.626
1311525208295,120.472
1311525268295,120.342
1311525328295,120.462
1311525388295,120.492
1311525448295,120.478
1311525508295,120.277
1311525568295,120.700
1311525628295,120.620
1311525688295,120.441
1311525748295,120.123
1311525808295,120.500
1311525868295,120.134
1311525928295,120.309
1311525988295,120.285
1311526048295,120.142
1311526108295,120.362
1311526168295,120.540
1311526228295,120.690
1311526288295,120.620
1311526348295,120.315
1311526408295,120.465
1311526468295,120.498
1311526528295,120.725
1311526588295,120.705
1311526648295,120.496
1311526708295,120.589
1311526768295,120.413
1311526828306,120.427
1311526888306,120.501
1311526948306,120.501
1311527008306,120.543
1311527068306,120.623
1311527128306,120.446
1311527188306,120.386
1311527248306,120.378
1311527308306,120.225
1311527368306,120.340
1311527428306,120.253
1311527488306,120.316
1311527548306,120.241
1311527608306,120.261
1311527668306,120.090
1311527728306,120.139
1311527788306,120.321
1311527848306,120.116
1311527908306,120.151
1311527968306,119.994
1311528028306,120.241
1311528088306,119.932
1311528148306,120.090
1311528208306,119.960
1311528268306,120.004
1311528328306,120.263
1311528388306,120.127
1311528448306,120.009
1311528508306,119.847
1311528568306,120.188
1311528628306,120.096
1311528688306,119.718
1311528748306,120.306
1311528808306,120.037
1311528868306,120.125
1311528928306,119.924
1311528988306,119.978
1311529048306,119.946
1311529108306,119.981
1311529168306,120.218
1311529228306,119.927
1311529288306,120.055
1311529348306,119.939
1311529408306,120.089
1311529468306,120.248
1311529528306,120.029
1311529588306,120.068
1311529648306,119.984
1311529708306,120.051
1311529768306,120.301
1311529828306,120.071
1311529888306,120.163
1311529948306,120.234
1311530008306,120.192
1311530068306,119.950
1311530128306,120.064
1311530188306,119.755
1311530248306,119.934
1311530308306,119.774
1311530368306,119.843
1311530428316,119.939
1311530488316,120.131
1311530548316,119.844
1311530608316,119.866
1311530668316,119.857
1311530728316,119.782
1311530788316,119.752
1311530848316,119.651
1311530908316,120.009
1311530968316,119.852
1311531028316,119.738
1311531088316,119.849
1311531148316,119.860
1311531208316,119.901
1311531268316,119.923
1311531328316,120.184
1311531388316,119.820
1311531448316,119.606
1311531508316,119.813
1311531568316,119.634
1311531628316,119.887
1311531688316,119.758
1311531748316,119.873
1311531808316,119.789
1311531868316,119.585
1311531928316,119.717
1311531988316,120.045
1311532048316,119.859